Location: Antioch Baptist Church
(32.6696°N, 85.7327°W)
Time: 00:02:43
(UTC+00:00)

Spot 2 Rocket - Pass Details

Date: 14 July 2020
Orbit: 757 x 772 km, 98.6° (Epoch: 12 August)

Event Time Altitude Azimuth Distance (km) Brightness Sun altitude
Exits shadow 02:19:25 25° 111° (ESE) 1,522 4.5 -16.2°
Maximum altitude 02:21:24 33° 71° (ENE) 1,265 4.4 -16.5°
Drops below altitude 10° 02:25:57 10° 8° (N) 2,319 6.4 -17.2°
Sets 02:28:27 0° 359° (N) 3,251 7.4 -17.6°
